Location: Bartshausen
(51.8454°N, 9.8167°E)
Time: 09:41:54
(UTC+00:00)

Cosmos 1484 Rocket - Pass Details

Date: 08 November 2025
Orbit: 442 x 473 km, 97.6° (Epoch: 12 December)

Event Time Altitude Azimuth Distance (km) Brightness Sun altitude
Rises 04:55:12 0° 17° (NNE) 2,552 6.3 -14.4°
Reaches altitude 10° 04:57:18 10° 22° (NNE) 1,668 5.4 -14.1°
Maximum altitude 05:00:50 55° 101° (E) 586 3.3 -13.6°
Drops below altitude 10° 05:04:19 10° 180° (S) 1,650 5.4 -13.0°
Sets 05:06:24 0° 185° (S) 2,520 6.3 -12.7°
